This is the latest recevied weather packets stored in our database for station/object DB0TGO-14. If no packets are shown the sender has not sent any weather packets the latest 1 day(s).
| Time | Temp. | Humidity | Pressure | Rain* | Wind** | Luminosity | Snow |
|---|---|---|---|---|---|---|---|
| 1836274829 | 16.11° C | 87% | 1019 hPa | 0 mm | 0.89 m/s, 112° | - | - |
| 1836274715 | 16.11° C | 87% | 1019 hPa | 0 mm | 0.45 m/s, 158° | - | - |
| 1836274595 | 16.11° C | 87% | 1019 hPa | 0 mm | 0.89 m/s, 180° | - | - |
| 1836274510 | 16.11° C | 87% | 1018.8 hPa | 0 mm | 0.89 m/s, 180° | - | - |
| 1836274485 | 16.11° C | 87% | 1018.9 hPa | 0 mm | 0.89 m/s, 158° | - | - |
| 1836274460 | 16.11° C | 87% | 1019 hPa | 0 mm | 0.89 m/s, 180° | - | - |
| 1836274396 | 16.11° C | 87% | 1018.9 hPa | 0 mm | 0.89 m/s, 158° | - | - |
| 1836274375 | 16.11° C | 88% | 1019 hPa | 0 mm | 0.45 m/s, 158° | - | - |
| 1836274296 | 16.11° C | 87% | 1019 hPa | 0 mm | 0.89 m/s, 180° | - | - |
| 1836274275 | 16.11° C | 88% | 1019 hPa | 0 mm | 0.45 m/s, 135° | - | - |
| 1836274265 | 16.11° C | 88% | 1019 hPa | 0 mm | 0.45 m/s, 135° | - | - |
| 1836274192 | 16.11° C | 87% | 1018.9 hPa | 0 mm | 0.89 m/s, 202° | - | - |
| 1836274166 | 16.11° C | 88% | 1019 hPa | 0 mm | 0.45 m/s, 135° | - | - |
| 1836273990 | 16.11° C | 88% | 1019 hPa | 0 mm | 0.45 m/s, 112° | - | - |
| 1778035210 | 10.56° C | 98% | 1006.7 hPa | 4.06 mm | 0.89 m/s, 45° | - | - |
| 1778035105 | 10.56° C | 98% | 1006.6 hPa | 4.06 mm | 0.89 m/s, 45° | - | - |
| 1778035010 | 10.56° C | 98% | 1006.6 hPa | 3.56 mm | 0.89 m/s, 45° | - | - |
| 1778034915 | 10.56° C | 98% | 1006.7 hPa | 3.56 mm | 0.89 m/s, 22° | - | - |
| 1778034877 | 10.56° C | 98% | 1006.7 hPa | 3.56 mm | 0.89 m/s, 22° | - | - |
| 1778034802 | 10.56° C | 98% | 1006.7 hPa | 3.56 mm | 0.89 m/s, 22° | - | - |
| 1778034700 | 10.56° C | 98% | 1006.8 hPa | 3.56 mm | 0.89 m/s, 22° | - | - |
| 1778034580 | 10.56° C | 98% | 1006.8 hPa | 3.56 mm | 0.45 m/s, 0° | - | - |
| 1778034462 | 10.56° C | 98% | 1006.8 hPa | 3.56 mm | 0.45 m/s, 68° | - | - |
| 1778034345 | 10.56° C | 98% | 1006.8 hPa | 3.3 mm | 0.89 m/s, 22° | - | - |
| 1778034245 | 10.56° C | 98% | 1006.8 hPa | 3.3 mm | 0.89 m/s, 22° | - | - |
* Rain latest hour (hover to see other rain measurements)
** Current wind speed in m/s (hover to see current wind gust speed)